www.pogodaiklimat.ru

Погода и климат >> Архив погоды >> Китай >> Хэбэй >> Фэннин


ПОГОДА в Фэннине

  • Прогноз погоды в Фэннине
  • Монитор погоды в Фэннине

АРХИВ ПОГОДЫ в Фэннине

Время (UTC), дата Ветер
(напр.,м/с)
 
Видим.   Явления Облачность Т
(С)
Тd
(С)
f
(%)
Тe
(С)
Тes
(С)
Комфортность P
(гПа)
Po
(гПа)
Тmin
(С)
Tmax
(С)
R
(мм)
R24
(мм)
S
(см)
18 17.06 В 1 3500 м дымка ?/? +14.3 +13.5 95 +15 +15 1006.8 930.7 +23.4
21 17.06 З 1 2500 м дымка н/о +13.7 +13.2 97 +14 +14 1007.4 931.1
00 18.06 СЗ 1 4300 м дымка 8/8 1000 м
[]
+16.4 +14.9 91 +17 +19 1007.3 931.7 0.1
03 18.06 Ю 2 18 км {ливн. осадки} 3/3 1000 м
[]
+24.8 +16.0 58 +28 +41 жарко 1005.4 932.0
06 18.06 В 8 30 км {ливн. осадки} 8/8 1000 м
[]
+29.6 +15.3 42 +32 +33 душно 1002.7 930.6 +13.3 1
09 18.06 Ю 1 30 км 4/4 1000 м
[]
+25.8 +16.1 55 +29 +33 душно 1003.8 930.7
12 18.06 Ю 2 30 км 6/6 1000 м
[]
+23.5 +15.3 60 +26 +26 жарко 1004.9 931.2
18 18.06 СЗ 1 22 км ?/? +17.0 +15.0 88 +18 +18 1006.0 930.6 +30.6
21 18.06 С 1 11 км н/о +15.0 +13.9 93 +15 +15 1007.0 931.1
00 19.06 С 1 20 км 5/5
[]
+19.4 +15.3 77 +22 +27 комфорт 1007.2 932.4
03 19.06 В 4 12 км 5/5 1000 м
[]
+27.3 +18.0 57 +32 +38 очень
душно
1005.7 932.9
06 19.06 ЮВ 5 20 км 5/5 1000 м
[]
+30.4 +17.5 46 +34 +39 очень
душно
1004.0 932.0 +14.9
09 19.06 Ю 5 17 км 6/6 1000 м
[]
+27.7 +16.7 51 +31 +32 душно 1003.6 931.0
12 19.06 Ю 6 11 км 8/8 1000 м
[]
+24.5 +16.7 62 +28 +28 душно 1004.7 931.3
18 19.06 С 1 4200 м дымка ?/? +18.4 +16.4 88 +20 +20 1005.1 930.2 +30.6
21 19.06 ЮВ 1 2100 м дымка н/о +16.9 +15.9 94 +18 +18 1005.5 930.2
00 20.06 СВ 1 6000 м дымка ясно +22.8 +17.3 71 +28 +36 душно 1005.2 931.3
03 20.06 Ю 2 22 км 3/3 1000 м
[]
+31.4 +15.4 38 +34 +47 душно 1003.3 931.6
06 20.06 В 5 30 км 5/5 1000 м
[]
+33.3 +12.9 29 +34 +38 очень
жарко
1001.5 930.3 +16.8
09 20.06 В 3 30 км 3/3 1000 м
[]
+31.6 +10.9 28 +32 +35 жарко 1001.9 930.3
12 20.06 Ю 5 30 км ясно +27.4 +13.4 42 +29 +29 жарко 1003.5 922.8
18 20.06 СЗ 1 29 км ?/? +19.7 +12.9 65 +22 +22 комфорт 1006.1 931.4 +34.5
21 20.06 штиль 0 14 км н/о +17.0 +13.7 81 +17 +17 1007.6 932.1
00 21.06 В 2 15 км 4/4
[]
+22.1 +16.4 70 +26 +31 душно 1007.9 926.7
03 21.06 В 8 13 км 6/6
[]
+28.9 +18.1 52 +34 +35 очень
душно
1007.1 934.5
06 21.06 Ю 4 11 км 10/10 1000 м
[]
+24.5 +16.5 61 +28 +28 душно 1008.7 935.0 +16.9
09 21.06 С 1 7000 м в посл. час ливневой дождь 10/10 1000 м
[]
+23.2 +18.7 76 +29 +29 душно 1009.6 935.5
12 21.06 З 2 8000 м {ливн. осадки} 8/8
[]
+22.3 +16.6 70 +27 +27 душно 1010.2 935.8 0.9
18 21.06 штиль 0 3200 м дымка ?/? +16.6 +15.5 93 +16 +16 1012.2 936.3 +29.3
21 21.06 штиль 0 1600 м дымка н/о +15.2 +14.7 97 +15 +15 1012.8 936.5
00 22.06 С 2 н/о дымка 3/3
[]
+19.5 +16.2 81 +22 +27 комфорт 1012.1 936.9
03 22.06 С 1 17 км 3/3 1000 м
[]
+29.5 +14.1 39 +31 +47 жарко 1009.4 936.8
06 22.06 Ю 3 30 км 4/4 1000 м
[]
+31.5 +8.5 24 +30 +39 жарко 1007.1 935.1 +15.1
09 22.06 С 3 30 км 4/4 1000 м
[]
+33.4 +8.1 21 +32 +35 жарко 1005.7 934.3
12 22.06 Ю 3 30 км 4/4 1000 м
[]
+28.0 +10.2 33 +28 +28 жарко 1006.5 933.8
18 22.06 штиль 0 30 км ?/? +17.2 +11.7 70 +17 +17 1009.1 933.6 +33.9
21 22.06 С 1 25 км н/о +14.7 +11.1 79 +15 +15 1009.9 933.7
00 23.06 С 1 26 км 1/1
[]
+21.0 +12.2 57 +24 +32 комфорт 1009.7 935.1
03 23.06 В 4 30 км 4/4 1000 м
[]
+32.0 +12.3 30 +32 +40 жарко 1007.4 935.5
06 23.06 В 3 30 км 6/6 1000 м
[]
+33.9 +12.8 28 +34 +40 очень
жарко
1005.8 925.0 +14.5
09 23.06 Ю 7 30 км 8/8 1000 м
[]
+30.7 +13.0 34 +32 +32 жарко 1006.1 934.0
12 23.06 Ю 6 23 км 10/10 1000 м
[]
+27.2 +13.9 44 +29 +29 жарко 1006.9 933.9
18 23.06 СЗ 2 19 км ?/? +20.4 +14.7 70 +24 +24 комфорт 1007.1 932.5 +34.5
21 23.06 С 1 14 км н/о +18.0 +14.3 79 +19 +19 1008.4 933.1
00 24.06 С 1 15 км 9/9
[]
+23.6 +16.1 63 +27 +28 жарко 1007.9 934.0
03 24.06 Ю 3 21 км 6/6 1000 м
[]
+31.5 +13.3 33 +33 +39 жарко 1005.2 933.4
06 24.06 Ю 6 30 км 8/8 1000 м
[]
+32.7 +8.9 23 +32 +33 жарко 1003.7 932.2 +17.9
09 24.06 Ю 7 30 км 4/4 1000 м
[]
+31.0 +8.1 24 +30 +31 жарко 1004.0 932.1
12 24.06 Ю 4 30 км 9/9 1000 м
[]
+27.9 +9.7 32 +28 +28 жарко 1005.1 932.4

 

Местоположение метеостанции Фэннин (Хэбэй, Китай): широта 41.22 долгота 116.63 высота над уровнем моря 661 м.

В архиве по умолчанию представлена погода в Фэннине за последнюю неделю. Архивные данные за месяц целиком и за предыдущие месяцы, начиная с января 2011 года, Вы можете получить, выбрав интересующий диапазон дат из раскрывающегося списка и нажав кнопку "Ввод!".


*Определитесь, кто Вы:
робот инопланетянин человек

Внимание! Время в таблицах - всемирное. Для получения местного времени необходимо прибавить поправку, которая равна 8 ч.

Смотрите также архив погоды в соседних городах и на ближайших метеорологических станциях:

Погода в Долуне (Внутренняя Монголия, Китай) (108 км)
Погода в Чэндэ (Хэбэй, Китай) (114 км)
Погода в Вэйчане (Хэбэй, Китай) (122 км)
Погода в Хуайлае (Хэбэй, Китай) (132 км)
Погода в Пекине (город Пекин, Китай) (146 км)
Погода в Чжанцзякоу (Хэбэй, Китай) (155 км)
Погода в Таншане (Хэбэй, Китай) (215 км)
Погода в Цинлуне (Хэбэй, Китай) (216 км)
Погода в Чифэне (Внутренняя Монголия, Китай) (226 км)
Погода в Хуадэ (Внутренняя Монголия, Китай) (232 км)

Пояснения к столбцам:

Ветер - указаны скорость ветра в м/с - средняя за 10 мин, порывы в срок и между сроками (в фигурных скобках) и направление, откуда дует ветер: С - северный, СВ - северо-восточный, В - восточный, ЮВ - юго-восточный, Ю - южный, ЮЗ - юго-западный, З - западный, СЗ - северо-западный.
Видимость - горизонтальная дальность видимости в метрах или километрах. При видимости от 1 до 10 км при отсутствии осадков обычно наблюдается дымка, при ухудшении видимости до 1 км и менее - туман. В сухую погоду видимость может ухудшаться дымом, пылью или мглою.
Явления - указаны атмосферные явления, наблюдавшиеся в срок или в последний час перед сроком; фигурными скобками обозначены явления, наблюдавшиеся между сроками (за 1-3 часа до срока); квадратными скобками обозначены град или гололедные отложения с указанием их диаметра в мм.
Облачность - указаны через наклонную черту общая и нижняя облачность в баллах и высота нижней границы облаков в метрах; квадратными скобками обозначены формы облаков: Ci - перистые, Cs - перисто-слоистые, Cc - перисто-кучевые, Ac - высококучевые, As - высокослоистые, Sc - слоисто-кучевые, Ns - слоисто-дождевые, Cu - кучевые, Cb - кучево-дождевые. Подробнее классификацию облаков см. в Атласе облаков (PDF).
T - Температура воздуха - температура, измеренная на высоте 2 м над землей.
Td - Температура точки росы - температура, при понижении до которой содержащийся в воздухе водяной пар достигнет насыщения.
f - Относительная влажность воздуха - влажноcть воздуха, измеренная на высоте 2 м над землей.
Te - Эффективная температура - температура, которую ощущает одетый по сезону человек в тени. Характеристика душности погоды. При расчете учитывается влияние влажности воздуха и скорости ветра на теплоощущения человека.
Tes - Эффективная температура на солнце - температура, которую ощущает человек, с поправкой на солнечный нагрев. Характеристика знойности погоды. Зависит от высоты солнца над горизонтом, облачности и скорости ветра. Ночью, в пасмурную погоду, а также при ветре 12 м/с и более поправка равна нулю.
P - Атмосферное давление - приведенное к уровню моря атмосферное давление.
Po - Атмосферное давление - измеренное на уровне метеостанции атмосферное давление.
Tmin - Минимальная температура - минимум температуры воздуха на высоте 2 м над землей.
Tmax - Максимальная температура - максимум температуры воздуха на высоте 2 м над землей.
R - Количество осадков - Количество выпавших осадков за период времени, мм. При наведении курсора мыши на число - период времени, за который выпало указанное количество осадков.
R24 - Количество осадков - Количество выпавших осадков за 24 часа, мм.
S - Снежный покров - Высота снежного покрова, см. При наведении курсора мыши на число - состояние снежного покрова и степень покрытия местности в баллах.